sat.trackr.live / text

‹ back to catalog

STARLINK-35936

NORAD 66620 · 2025-271D

PAYLOAD ACTIVE UNKNOWN

§ Identity

Operator
Country
US
Launch date
2025-11-23
Launch site
AFWTR
Launch vehicle
Mass (kg)
RCS (m²)

Purposes: comms

External: N2YO · Heavens-Above · Gunter

§ Orbital elements

Epoch: 2026-05-24T23:37:32.439072Z

Period
94.10 min
Inclination
53.1582°
Eccentricity
0.0001210
Mean motion
15.30208318 rev/d
Perigee alt
474.4 km
Apogee alt
476.0 km
Semi-major
6,853.3 km
B*
4.1498e-4
RAAN
145.8450°
Arg perigee
82.9283°
Mean anomaly
277.1855°
Rev number
2,924

§ Raw data

STARLINK-359361 66620U 25271D   26144.98440323  .00011954  00000+0  41498-3 0  99952 66620  53.1582 145.8450 0001210  82.9283 277.1855 15.30208318 29242

JSON: /api/v1/satellites/66620 · /tle

For live sub-satellite position, see the globe view (requires WebGL).

§ Visibility from observer

Set your observer location to see the next 7 days of passes ≥ 10°. The values pass through the URL so the page stays shareable.

No JS? Fill the form by hand. The geolocation button needs JavaScript.